This is the latest recevied weather packets stored in our database for station/object N9BID. If no packets are shown the sender has not sent any weather packets the latest 10 day(s).
| Time | Temp. | Humidity | Pressure | Rain* | Wind** | Luminosity | Snow |
|---|---|---|---|---|---|---|---|
| 1777405542 | 13.89° C | 57% | 1004.7 hPa | 0 mm | - | 256 W/m² | - |
| 1777405239 | 13.89° C | 55% | 1004.9 hPa | 0 mm | - | 466 W/m² | - |
| 1777404937 | 13.89° C | 55% | 1004.8 hPa | 0 mm | - | 197 W/m² | - |
| 1777404634 | 13.33° C | 56% | 1004.9 hPa | 0 mm | - | 390 W/m² | - |
| 1777404330 | 13.33° C | 59% | 1004.6 hPa | 0 mm | - | 242 W/m² | - |
| 1777404027 | 13.33° C | 57% | 1004.6 hPa | 0 mm | - | 462 W/m² | - |
| 1777403722 | 13.33° C | 63% | 1004.4 hPa | 0 mm | - | 596 W/m² | - |
| 1777403420 | 13.33° C | 60% | 1004.6 hPa | 0 mm | - | 404 W/m² | - |
| 1777403115 | 13.33° C | 60% | 1004.6 hPa | 0 mm | - | 512 W/m² | - |
| 1777402811 | 13.33° C | 58% | 1004.7 hPa | 0 mm | - | 309 W/m² | - |
| 1777402509 | 12.78° C | 61% | 1004.6 hPa | 0 mm | - | 338 W/m² | - |
| 1777402205 | 12.78° C | 63% | 1004.4 hPa | 0 mm | - | 317 W/m² | - |
| 1777401900 | 12.78° C | 63% | 1004.5 hPa | 0 mm | - | 296 W/m² | - |
| 1777401593 | 12.78° C | 65% | 1004.5 hPa | 0 mm | - | 402 W/m² | - |
| 1777401290 | 12.78° C | 62% | 1004.1 hPa | 0 mm | - | 468 W/m² | - |
| 1777400985 | 12.22° C | 65% | 1004.4 hPa | 0 mm | - | 498 W/m² | - |
| 1777400681 | 12.22° C | 64% | 1004.1 hPa | 0 mm | - | 461 W/m² | - |
| 1777400379 | 12.22° C | 64% | 1004 hPa | 0 mm | - | 294 W/m² | - |
| 1777400074 | 12.22° C | 63% | 1004.1 hPa | 0 mm | - | 323 W/m² | - |
| 1777399772 | 12.78° C | 67% | 1004 hPa | 0 mm | - | 558 W/m² | - |
| 1777399468 | 12.22° C | 68% | 1004 hPa | 0 mm | - | 455 W/m² | - |
| 1777399166 | 12.22° C | 65% | 1004 hPa | 0 mm | - | 380 W/m² | - |
| 1777398863 | 12.22° C | 63% | 1004.4 hPa | 0 mm | - | 477 W/m² | - |
| 1777398560 | 12.78° C | 71% | 1004.2 hPa | 0 mm | - | 563 W/m² | - |
| 1777398256 | 12.22° C | 70% | 1004.1 hPa | 0 mm | - | 602 W/m² | - |
* Rain latest hour (hover to see other rain measurements)
** Current wind speed in m/s (hover to see current wind gust speed)